Location: Cahas Mountain Overlook
(37.0833°N, 80.1000°W)
Time: 13:48:49
(UTC-05:00)

Courier 1B - Pass Details

Date: 10 December 2023
Orbit: 962 x 1209 km, 28.3° (Epoch: 29 February)

Event Time Altitude Azimuth Distance (km) Brightness Sun altitude
Rises 12:32:25 0° 262° (W) 3,727 10.7 29.8°
Reaches altitude 10° 12:36:02 10° 245° (WSW) 2,738 10.4 29.7°
Maximum altitude 12:40:16 18° 204° (SSW) 2,177 11.1 29.6°
Drops below altitude 10° 12:44:26 10° 163° (SSE) 2,683 11.0 29.5°
Sets 12:47:56 0° 145° (SE) 3,622 11.1 29.4°
